Showing default

SMDC ONE 2.4, 39472

Orbit data source: Space-Track

SMDC ONE 2.4, 39472 is a payload satellite owned by SMDC (US) in LEO that was launched on Fri, 06 Dec 2013 UTC via an ATLAS V 501 launch vehicle from the Air Force Western Test Range (AFWTR). Payload-class satellites include a variety of spacecraft equipped with specific instruments for various scientific and technological missions. These include communications satellites like Starlink; space stations such as the ISS; scientific satellites like the Hubble; Earth observation satellites from companies like Planet Labs, Umbra, and HawkEye 360; GPS; miniature CubeSats for education and research; and military/defense satellites.

Loading next visibility...
Identifier
39472, 2013-072L
Orbit
LEO
Country
Flag of USUS
Related business
Manufacturer
Duocomm Miltec
Mission
Operational Defense Communications
Bus & Motor
CUBESAT 3U, Unknown motor
Mass
4 kg wet, 4 kg dry
Launch date (UTC)
2013-12-06 (12 years ago)
Launch vehicle
ATLAS V 501
Launch site
Air Force Western Test Range (AFWTR)
Object type
Payload
Rocket body
Debris
Shape & HBR
Box, 0.1 m
Radar Cross Section
0.075 m², Small (<0.1 m²)

Expand to show TLE details & history
Last TLE update: 8 hours ago

TLE from 8 hours ago
0 SMDC ONE 2.4
1 39472U 13072L   26095.24928841  .00158146  00000-0  13877-2 0  9991
2 39472 120.4787 217.2559 0053754 341.1663  18.7445 15.66047701105399
Epoch: 2026-04-05T05:58Z
TLE epoch observation values (Epoch: 2026-04-05T05:58:58.518Z)
Latitude
-0.00005°
Longitude
-66.04532°
Altitude
337.475 km
Speed
7.727 km/s
True Right ascension
14h 29m 01s
True Declination
0° 00' 00"
Sunlit
Object was in full shadow at epoch
Visualization orbit readout
Latitude
Unknown
Longitude
Unknown
Altitude
Unknown
Speed
Unknown
Apparent Right ascension
Unknown
Apparent Declination
Unknown
Sunlit
N/A
Visualization observer readout
Local Sidereal Time
19:25:27
Azimuth
Unknown
Elevation
Unknown
Doppler factor
Unknown
Orbital elements
Apogee altitude
405.758 km
Perigee altitude
333.216 km
Semi-major axis
6,747.624 km
Eccentricity
0.00538
Inclination
120.4787°
RAAN
217.2559°
Arg. of periapsis
341.1663°
True anomaly
18.94371°
Mean anomaly
18.7445°
Eccentric anomaly
18.84398°
Mean motion
3.91577 °/min
Orbital period
91.94 mins
BSTAR
0.0013877
Loading maneuver chart data...
Computing Atmospheric mass density...
Loading historical data...
Loading historical data...
Loading historical data...
Loading historical data...
Loading historical data...
Loading historical data...
Loading historical data...

Documentation

Showing up to 5 results
|